{"data":{"norad_id":47397,"intl_designator":"2021-005BA","name":"STARLINK-2119","alt_names":[],"object_type":"PAYLOAD","status":"ACTIVE","operator":null,"country":"US","launch_date":"2021-01-20","launch_site_code":"AFETR","launch_vehicle":null,"mission":null,"orbit_class":"UNKNOWN","rcs_meters":null,"size_class":null,"mass_kg":null,"dimensions":null,"purposes":["comms"],"wikipedia_slug":null,"has_3d_model":false,"image_url":null,"decayed_at":null,"tle_current":{"epoch":"2026-05-25T03:46:24.093120Z","epoch_age_seconds":61148,"freshness":"FRESH","line1":"1 47397U 21005BA  26145.15722330  .00036823  00000+0  11688-2 0  9996","line2":"2 47397  53.1593  67.0341 0001474 124.4914 235.6227 15.32345583294742","mean_motion":15.32345583,"eccentricity":0.0001474,"inclination_deg":53.1593,"raan_deg":67.0341,"arg_perigee_deg":124.4914,"mean_anomaly_deg":235.6227,"bstar":0.0011688,"rev_number":29474,"period_min":93.973579848796,"perigee_km":467.80698067099,"apogee_km":469.82546248071,"semimajor_km":6846.9532215758,"source":"CELESTRAK","updated_at":"2026-05-25T13:38:16.554007Z"}}}